Wetterdaten: Freitag, 13.09.2013
Datum Zeit Temperatur Luftfeuchte Luftdruck Regen Wind Richtung Richtung Taupunkt Windchill Windben
13.09.2013 00:00 7,1 C 96 % 1020,9 hPa 0,0 l/m 3,5 km/h (1 Bft) S 180 6,5 C 7,3 C 3,7 km/h (1 Bft)
13.09.2013 00:05 7,2 C 96 % 1020,9 hPa 0,0 l/m 3,4 km/h (1 Bft) SO 135 6,6 C 7,3 C 4,8 km/h (1 Bft)
13.09.2013 00:10 7,1 C 96 % 1020,9 hPa 0,0 l/m 2,7 km/h (1 Bft) S-SO 157 6,5 C 7,3 C 4,2 km/h (1 Bft)
13.09.2013 00:15 7,2 C 96 % 1020,9 hPa 0,0 l/m 3,9 km/h (1 Bft) S 180 6,6 C 7,1 C 5,8 km/h (2 Bft)
13.09.2013 00:20 7,2 C 96 % 1020,9 hPa 0,0 l/m 4,8 km/h (1 Bft) O 90 6,6 C 6,8 C 14,0 km/h (3 Bft)
13.09.2013 00:25 7,2 C 96 % 1020,9 hPa 0,0 l/m 3,7 km/h (1 Bft) S-SW 202 6,6 C 7,3 C 2,1 km/h (1 Bft)
13.09.2013 00:30 7,2 C 96 % 1020,9 hPa 0,0 l/m 2,6 km/h (1 Bft) O-SO 112 6,6 C 7,4 C 14,0 km/h (3 Bft)
13.09.2013 00:35 7,1 C 96 % 1020,9 hPa 0,0 l/m 1,8 km/h (1 Bft) O 90 6,5 C 7,4 C 1,8 km/h (1 Bft)
13.09.2013 00:40 7,2 C 96 % 1020,9 hPa 0,0 l/m 2,6 km/h (1 Bft) S 180 6,6 C 7,4 C 3,2 km/h (1 Bft)
13.09.2013 00:45 7,2 C 96 % 1020,9 hPa 0,0 l/m 2,9 km/h (1 Bft) SO 135 6,6 C 7,4 C 2,7 km/h (1 Bft)
13.09.2013 00:50 7,2 C 96 % 1020,9 hPa 0,0 l/m 2,4 km/h (1 Bft) S 180 6,6 C 7,4 C 3,4 km/h (1 Bft)
13.09.2013 00:55 7,1 C 96 % 1020,9 hPa 0,0 l/m 2,7 km/h (1 Bft) NO 45 6,5 C 7,4 C 6,3 km/h (2 Bft)
13.09.2013 01:00 7,1 C 96 % 1021,0 hPa 0,0 l/m 3,1 km/h (1 Bft) SO 135 6,5 C 7,4 C 5,6 km/h (1 Bft)
13.09.2013 01:05 7,0 C 96 % 1021,0 hPa 0,0 l/m 3,7 km/h (1 Bft) S 180 6,4 C 7,3 C 7,6 km/h (2 Bft)
13.09.2013 01:10 7,0 C 96 % 1021,0 hPa 0,0 l/m 3,5 km/h (1 Bft) O 90 6,4 C 7,4 C 2,7 km/h (1 Bft)
13.09.2013 01:15 7,0 C 96 % 1021,0 hPa 0,0 l/m 3,5 km/h (1 Bft) S 180 6,4 C 7,4 C 4,7 km/h (1 Bft)
13.09.2013 01:20 7,0 C 96 % 1020,9 hPa 0,0 l/m 3,7 km/h (1 Bft) S-SO 157 6,4 C 7,3 C 4,2 km/h (1 Bft)
13.09.2013 01:25 7,0 C 96 % 1020,9 hPa 0,0 l/m 4,3 km/h (1 Bft) O-SO 112 6,4 C 7,0 C 11,1 km/h (2 Bft)
13.09.2013 01:30 7,0 C 96 % 1020,9 hPa 0,0 l/m 3,7 km/h (1 Bft) S 180 6,4 C 7,3 C 2,6 km/h (1 Bft)
13.09.2013 01:35 7,0 C 96 % 1020,9 hPa 0,0 l/m 2,1 km/h (1 Bft) O 90 6,4 C 7,4 C 0,0 km/h (0 Bft)
13.09.2013 01:40 7,1 C 96 % 1020,8 hPa 0,0 l/m 1,3 km/h (1 Bft) NO 45 6,5 C 7,4 C 1,8 km/h (1 Bft)
13.09.2013 01:45 7,2 C 96 % 1020,8 hPa 0,0 l/m 1,6 km/h (1 Bft) O-SO 112 6,6 C 7,4 C 2,3 km/h (1 Bft)
13.09.2013 01:50 7,2 C 96 % 1020,8 hPa 0,0 l/m 1,6 km/h (1 Bft) S-SO 157 6,6 C 7,4 C 0,0 km/h (0 Bft)
13.09.2013 01:55 7,2 C 96 % 1020,8 hPa 0,0 l/m 0,8 km/h (0 Bft) SO 135 6,6 C 7,4 C 0,0 km/h (0 Bft)
13.09.2013 02:00 7,2 C 96 % 1020,8 hPa 0,0 l/m 0,5 km/h (0 Bft) S-SO 157 6,6 C 7,4 C 4,5 km/h (1 Bft)
13.09.2013 02:05 7,3 C 96 % 1020,8 hPa 0,0 l/m 1,1 km/h (1 Bft) S-SO 157 6,7 C 7,4 C 1,9 km/h (1 Bft)
13.09.2013 02:10 7,3 C 96 % 1020,8 hPa 0,0 l/m 1,4 km/h (1 Bft) SW 225 6,7 C 7,4 C 2,6 km/h (1 Bft)
13.09.2013 02:15 7,2 C 96 % 1020,8 hPa 0,7 l/m 1,1 km/h (1 Bft) O 90 6,6 C 7,4 C 2,6 km/h (1 Bft)
13.09.2013 02:20 7,2 C 96 % 1020,8 hPa 0,0 l/m 1,6 km/h (1 Bft) O 90 6,6 C 7,4 C 2,4 km/h (1 Bft)
13.09.2013 02:25 7,2 C 96 % 1020,8 hPa 0,0 l/m 1,8 km/h (1 Bft) S 180 6,6 C 7,4 C 2,1 km/h (1 Bft)
13.09.2013 02:30 7,3 C 96 % 1020,8 hPa 0,0 l/m 1,8 km/h (1 Bft) N-NO 22 6,7 C 7,4 C 1,8 km/h (1 Bft)
13.09.2013 02:35 7,3 C 96 % 1020,8 hPa 0,0 l/m 2,4 km/h (1 Bft) S 180 6,7 C 7,4 C 4,7 km/h (1 Bft)
13.09.2013 02:40 7,3 C 96 % 1020,9 hPa 0,0 l/m 1,8 km/h (1 Bft) S 180 6,7 C 7,4 C 0,0 km/h (0 Bft)
13.09.2013 02:45 7,3 C 96 % 1020,9 hPa 0,0 l/m 0,6 km/h (0 Bft) S 180 6,7 C 7,4 C 0,0 km/h (0 Bft)
13.09.2013 02:50 7,3 C 96 % 1020,9 hPa 0,0 l/m 0,5 km/h (0 Bft) O 90 6,7 C 7,4 C 1,6 km/h (1 Bft)
13.09.2013 02:55 7,2 C 96 % 1020,9 hPa 0,0 l/m 0,3 km/h (0 Bft) O-SO 112 6,6 C 7,4 C 0,0 km/h (0 Bft)
13.09.2013 03:00 7,2 C 96 % 1020,8 hPa 0,0 l/m 0,3 km/h (0 Bft) S 180 6,6 C 7,4 C 1,6 km/h (1 Bft)
13.09.2013 03:05 7,2 C 96 % 1020,8 hPa 0,0 l/m 1,6 km/h (1 Bft) SO 135 6,6 C 7,4 C 1,8 km/h (1 Bft)
13.09.2013 03:10 7,1 C 96 % 1020,8 hPa 0,0 l/m 1,6 km/h (1 Bft) S 180 6,5 C 7,3 C 1,6 km/h (1 Bft)
13.09.2013 03:15 7,0 C 96 % 1020,8 hPa 0,0 l/m 1,6 km/h (1 Bft) S 180 6,4 C 7,2 C 2,1 km/h (1 Bft)
13.09.2013 03:20 7,0 C 96 % 1020,8 hPa 0,0 l/m 2,1 km/h (1 Bft) O-SO 112 6,4 C 7,1 C 3,5 km/h (1 Bft)
13.09.2013 03:25 7,0 C 96 % 1020,8 hPa 0,0 l/m 1,6 km/h (1 Bft) S 180 6,4 C 7,1 C 2,1 km/h (1 Bft)
13.09.2013 03:30 7,0 C 96 % 1020,8 hPa 0,0 l/m 2,1 km/h (1 Bft) S 180 6,4 C 7,0 C 2,6 km/h (1 Bft)
13.09.2013 03:35 6,9 C 96 % 1020,8 hPa 0,0 l/m 1,4 km/h (1 Bft) S 180 6,3 C 7,0 C 0,0 km/h (0 Bft)
13.09.2013 03:40 6,9 C 96 % 1020,8 hPa 0,0 l/m 0,8 km/h (0 Bft) S 180 6,3 C 7,0 C 0,0 km/h (0 Bft)
13.09.2013 03:45 6,8 C 96 % 1020,8 hPa 0,0 l/m 1,0 km/h (0 Bft) O 90 6,2 C 7,0 C 3,5 km/h (1 Bft)
13.09.2013 03:50 6,7 C 96 % 1020,8 hPa 0,7 l/m 1,9 km/h (1 Bft) S-SW 202 6,1 C 6,9 C 2,4 km/h (1 Bft)
13.09.2013 03:55 6,6 C 96 % 1020,8 hPa 0,0 l/m 2,4 km/h (1 Bft) NO 45 6,0 C 6,8 C 4,3 km/h (1 Bft)
13.09.2013 04:00 6,6 C 96 % 1020,8 hPa 0,7 l/m 1,9 km/h (1 Bft) SO 135 6,0 C 6,8 C 1,9 km/h (1 Bft)
13.09.2013 04:05 6,6 C 96 % 1020,8 hPa 0,0 l/m 0,8 km/h (0 Bft) O-NO 67 6,0 C 6,8 C 0,0 km/h (0 Bft)
13.09.2013 04:10 6,6 C 96 % 1020,8 hPa 0,0 l/m 0,3 km/h (0 Bft) O-NO 67 6,0 C 6,8 C 0,0 km/h (0 Bft)
13.09.2013 04:15 6,6 C 96 % 1020,8 hPa 0,7 l/m 0,2 km/h (0 Bft) O-SO 112 6,0 C 6,8 C 0,0 km/h (0 Bft)
13.09.2013 04:20 6,7 C 96 % 1020,9 hPa 0,0 l/m 0,2 km/h (0 Bft) S-SO 157 6,1 C 6,8 C 1,8 km/h (1 Bft)
13.09.2013 04:25 6,7 C 96 % 1020,9 hPa 0,7 l/m 0,3 km/h (0 Bft) S 180 6,1 C 6,9 C 0,0 km/h (0 Bft)
13.09.2013 04:30 6,7 C 96 % 1020,9 hPa 0,0 l/m 0,3 km/h (0 Bft) S-SW 202 6,1 C 6,9 C 0,0 km/h (0 Bft)
13.09.2013 04:35 6,6 C 96 % 1020,9 hPa 1,4 l/m 0,0 km/h (0 Bft) SO 135 6,0 C 6,9 C 0,0 km/h (0 Bft)
13.09.2013 04:40 6,6 C 96 % 1021,0 hPa 0,7 l/m 0,0 km/h (0 Bft) SO 135 6,0 C 6,8 C 0,0 km/h (0 Bft)
13.09.2013 04:45 6,6 C 96 % 1021,0 hPa 0,0 l/m 0,0 km/h (0 Bft) W 270 6,0 C 6,9 C 0,0 km/h (0 Bft)
13.09.2013 04:50 6,7 C 96 % 1021,0 hPa 0,7 l/m 0,0 km/h (0 Bft) W-SW 247 6,1 C 6,9 C 0,0 km/h (0 Bft)
13.09.2013 04:55 6,7 C 96 % 1021,0 hPa 0,0 l/m 0,2 km/h (0 Bft) S-SO 157 6,1 C 6,9 C 0,0 km/h (0 Bft)
13.09.2013 05:00 6,7 C 96 % 1021,0 hPa 0,0 l/m 0,2 km/h (0 Bft) W 270 6,1 C 6,9 C 0,0 km/h (0 Bft)
13.09.2013 05:05 6,7 C 96 % 1021,0 hPa 0,0 l/m 0,0 km/h (0 Bft) S 180 6,1 C 6,9 C 0,0 km/h (0 Bft)
13.09.2013 05:10 6,7 C 96 % 1021,0 hPa 0,0 l/m 0,0 km/h (0 Bft) S-SO 157 6,1 C 6,9 C 0,0 km/h (0 Bft)
13.09.2013 05:15 6,7 C 96 % 1021,0 hPa 0,7 l/m 0,0 km/h (0 Bft) W-SW 247 6,1 C 6,9 C 0,0 km/h (0 Bft)
13.09.2013 05:20 6,7 C 96 % 1021,1 hPa 0,0 l/m 0,3 km/h (0 Bft) S 180 6,1 C 6,9 C 3,2 km/h (1 Bft)
13.09.2013 05:25 6,6 C 96 % 1021,1 hPa 0,0 l/m 1,1 km/h (1 Bft) S 180 6,0 C 6,9 C 1,8 km/h (1 Bft)
13.09.2013 05:30 6,6 C 96 % 1021,1 hPa 0,7 l/m 1,4 km/h (1 Bft) O 90 6,0 C 6,8 C 2,4 km/h (1 Bft)
13.09.2013 05:35 6,6 C 96 % 1021,1 hPa 0,0 l/m 1,6 km/h (1 Bft) NO 45 6,0 C 6,8 C 3,1 km/h (1 Bft)
13.09.2013 05:40 6,6 C 96 % 1021,2 hPa 0,0 l/m 1,8 km/h (1 Bft) S-SW 202 6,0 C 6,8 C 0,0 km/h (0 Bft)
13.09.2013 05:45 6,6 C 96 % 1021,2 hPa 0,0 l/m 2,1 km/h (1 Bft) S 180 6,0 C 6,8 C 3,1 km/h (1 Bft)
13.09.2013 05:50 6,6 C 96 % 1021,2 hPa 0,7 l/m 2,1 km/h (1 Bft) SO 135 6,0 C 6,8 C 2,9 km/h (1 Bft)
13.09.2013 05:55 6,6 C 96 % 1021,2 hPa 0,0 l/m 1,8 km/h (1 Bft) S 180 6,0 C 6,8 C 4,0 km/h (1 Bft)
13.09.2013 06:00 6,6 C 96 % 1021,1 hPa 0,7 l/m 1,6 km/h (1 Bft) N-NO 22 6,0 C 6,8 C 1,6 km/h (1 Bft)
13.09.2013 06:05 6,6 C 96 % 1021,1 hPa 0,0 l/m 1,3 km/h (1 Bft) S-SO 157 6,0 C 6,9 C 2,9 km/h (1 Bft)
13.09.2013 06:10 6,7 C 96 % 1021,1 hPa 0,7 l/m 0,8 km/h (0 Bft) S 180 6,1 C 6,9 C 3,2 km/h (1 Bft)
13.09.2013 06:15 6,7 C 96 % 1021,1 hPa 0,0 l/m 1,3 km/h (1 Bft) O-SO 112 6,1 C 6,9 C 1,8 km/h (1 Bft)
13.09.2013 06:20 6,7 C 96 % 1021,4 hPa 0,7 l/m 1,8 km/h (1 Bft) S 180 6,1 C 6,9 C 3,7 km/h (1 Bft)
13.09.2013 06:25 6,7 C 96 % 1021,4 hPa 0,0 l/m 2,3 km/h (1 Bft) S-SW 202 6,1 C 6,9 C 3,5 km/h (1 Bft)
13.09.2013 06:30 6,6 C 96 % 1021,4 hPa 0,7 l/m 2,4 km/h (1 Bft) SO 135 6,0 C 6,9 C 4,8 km/h (1 Bft)
13.09.2013 06:35 6,6 C 96 % 1021,4 hPa 0,0 l/m 2,3 km/h (1 Bft) O 90 6,0 C 6,8 C 4,7 km/h (1 Bft)
13.09.2013 06:40 6,5 C 96 % 1021,7 hPa 0,0 l/m 2,6 km/h (1 Bft) O-SO 112 5,9 C 6,8 C 2,3 km/h (1 Bft)
13.09.2013 06:45 6,5 C 96 % 1021,7 hPa 0,0 l/m 2,9 km/h (1 Bft) O-SO 112 5,9 C 6,7 C 6,4 km/h (2 Bft)
13.09.2013 06:50 6,5 C 96 % 1021,7 hPa 0,0 l/m 2,6 km/h (1 Bft) O 90 5,9 C 6,7 C 1,6 km/h (1 Bft)
13.09.2013 06:55 6,6 C 96 % 1021,7 hPa 0,0 l/m 2,4 km/h (1 Bft) SO 135 6,0 C 6,7 C 1,6 km/h (1 Bft)
13.09.2013 07:00 6,6 C 96 % 1021,8 hPa 0,7 l/m 2,6 km/h (1 Bft) S-SO 157 6,0 C 6,7 C 4,7 km/h (1 Bft)
13.09.2013 07:05 6,6 C 96 % 1021,8 hPa 0,0 l/m 3,1 km/h (1 Bft) SO 135 6,0 C 6,7 C 4,8 km/h (1 Bft)
13.09.2013 07:10 6,6 C 96 % 1021,8 hPa 0,0 l/m 2,7 km/h (1 Bft) S 180 6,0 C 6,7 C 1,8 km/h (1 Bft)
13.09.2013 07:15 6,6 C 96 % 1021,8 hPa 0,0 l/m 2,4 km/h (1 Bft) SO 135 6,0 C 6,7 C 0,0 km/h (0 Bft)
13.09.2013 07:20 6,6 C 96 % 1021,8 hPa 0,0 l/m 2,3 km/h (1 Bft) SO 135 6,0 C 6,7 C 3,5 km/h (1 Bft)
13.09.2013 07:25 6,6 C 96 % 1021,8 hPa 0,0 l/m 1,3 km/h (1 Bft) O-SO 112 6,0 C 6,8 C 0,0 km/h (0 Bft)
13.09.2013 07:30 6,6 C 96 % 1021,8 hPa 0,0 l/m 1,1 km/h (1 Bft) NO 45 6,0 C 6,8 C 0,0 km/h (0 Bft)
13.09.2013 07:35 6,7 C 96 % 1021,8 hPa 0,0 l/m 0,8 km/h (0 Bft) N-NO 22 6,1 C 6,8 C 0,0 km/h (0 Bft)
13.09.2013 07:40 6,7 C 96 % 1021,8 hPa 0,0 l/m 0,3 km/h (0 Bft) NW 315 6,1 C 6,9 C 0,0 km/h (0 Bft)
13.09.2013 07:45 6,8 C 96 % 1021,8 hPa 0,0 l/m 0,3 km/h (0 Bft) O-SO 112 6,2 C 7,0 C 0,0 km/h (0 Bft)
13.09.2013 07:50 6,9 C 96 % 1021,8 hPa 0,7 l/m 0,6 km/h (0 Bft) S 180 6,3 C 7,0 C 0,0 km/h (0 Bft)
13.09.2013 07:55 6,9 C 96 % 1021,8 hPa 0,0 l/m 0,5 km/h (0 Bft) O 90 6,3 C 7,0 C 2,3 km/h (1 Bft)
13.09.2013 08:00 7,0 C 96 % 1021,9 hPa 0,0 l/m 0,3 km/h (0 Bft) O-SO 112 6,4 C 7,1 C 0,0 km/h (0 Bft)
13.09.2013 08:05 7,1 C 96 % 1021,9 hPa 0,0 l/m 0,3 km/h (0 Bft) S-SO 157 6,5 C 7,3 C 3,1 km/h (1 Bft)
13.09.2013 08:10 7,2 C 96 % 1021,9 hPa 0,0 l/m 0,5 km/h (0 Bft) S 180 6,6 C 7,3 C 0,0 km/h (0 Bft)
13.09.2013 08:14 7,2 C 96 % 1021,9 hPa 0,0 l/m 0,5 km/h (0 Bft) NO 45 6,6 C 7,4 C 2,7 km/h (1 Bft)
13.09.2013 08:19 7,1 C 96 % 1022,1 hPa 0,0 l/m 0,3 km/h (0 Bft) S 180 6,5 C 7,4 C 0,0 km/h (0 Bft)
13.09.2013 08:24 7,2 C 96 % 1022,1 hPa 0,0 l/m 0,5 km/h (0 Bft) S-SW 202 6,6 C 7,3 C 0,0 km/h (0 Bft)
13.09.2013 08:29 7,2 C 96 % 1022,1 hPa 0,0 l/m 0,3 km/h (0 Bft) W-SW 247 6,6 C 7,4 C 2,7 km/h (1 Bft)
13.09.2013 08:34 7,2 C 96 % 1022,1 hPa 0,0 l/m 0,3 km/h (0 Bft) S-SO 157 6,6 C 7,4 C 1,9 km/h (1 Bft)
13.09.2013 08:39 7,3 C 96 % 1022,2 hPa 0,0 l/m 0,5 km/h (0 Bft) S-SO 157 6,7 C 7,4 C 0,0 km/h (0 Bft)
13.09.2013 08:44 7,3 C 96 % 1022,2 hPa 0,0 l/m 0,5 km/h (0 Bft) O-NO 67 6,7 C 7,4 C 1,9 km/h (1 Bft)
13.09.2013 08:49 7,4 C 96 % 1022,2 hPa 0,0 l/m 0,6 km/h (0 Bft) S 180 6,8 C 7,5 C 2,9 km/h (1 Bft)
13.09.2013 08:54 7,4 C 96 % 1022,2 hPa 0,0 l/m 1,9 km/h (1 Bft) S 180 6,8 C 7,6 C 6,0 km/h (2 Bft)
13.09.2013 08:59 7,5 C 96 % 1022,2 hPa 0,0 l/m 2,4 km/h (1 Bft) O 90 6,9 C 7,6 C 2,9 km/h (1 Bft)
13.09.2013 09:04 7,5 C 96 % 1022,2 hPa 0,0 l/m 2,7 km/h (1 Bft) S-SW 202 6,9 C 7,6 C 5,8 km/h (2 Bft)
13.09.2013 09:09 7,5 C 96 % 1022,2 hPa 0,0 l/m 2,3 km/h (1 Bft) S 180 6,9 C 7,6 C 3,5 km/h (1 Bft)
13.09.2013 09:14 7,8 C 96 % 1022,2 hPa 0,0 l/m 2,4 km/h (1 Bft) S 180 7,2 C 7,9 C 3,2 km/h (1 Bft)
13.09.2013 09:19 7,7 C 96 % 1022,4 hPa 0,0 l/m 3,2 km/h (1 Bft) O-SO 112 7,1 C 7,9 C 2,4 km/h (1 Bft)
13.09.2013 09:24 7,7 C 96 % 1022,4 hPa 0,0 l/m 2,7 km/h (1 Bft) SO 135 7,1 C 8,0 C 1,9 km/h (1 Bft)
13.09.2013 09:29 7,8 C 96 % 1022,4 hPa 0,0 l/m 2,3 km/h (1 Bft) S-SO 157 7,2 C 8,2 C 4,7 km/h (1 Bft)
13.09.2013 09:34 7,8 C 96 % 1022,4 hPa 0,0 l/m 3,2 km/h (1 Bft) S 180 7,2 C 8,2 C 4,3 km/h (1 Bft)
13.09.2013 09:39 7,8 C 96 % 1022,4 hPa 0,0 l/m 3,5 km/h (1 Bft) SO 135 7,2 C 8,2 C 3,4 km/h (1 Bft)
13.09.2013 09:44 7,8 C 96 % 1022,4 hPa 0,0 l/m 3,2 km/h (1 Bft) O-SO 112 7,2 C 8,2 C 5,1 km/h (1 Bft)
13.09.2013 09:49 7,8 C 96 % 1022,4 hPa 0,0 l/m 3,9 km/h (1 Bft) O 90 7,2 C 8,2 C 5,8 km/h (2 Bft)
13.09.2013 09:54 7,8 C 96 % 1022,4 hPa 0,0 l/m 4,2 km/h (1 Bft) S 180 7,2 C 8,0 C 6,6 km/h (2 Bft)
13.09.2013 09:59 7,9 C 96 % 1022,6 hPa 0,0 l/m 4,0 km/h (1 Bft) SO 135 7,3 C 8,1 C 15,6 km/h (3 Bft)
13.09.2013 10:04 7,9 C 96 % 1022,6 hPa 0,0 l/m 6,0 km/h (2 Bft) S-SO 157 7,3 C 7,4 C 10,5 km/h (2 Bft)
13.09.2013 10:09 8,0 C 96 % 1022,6 hPa 0,0 l/m 6,6 km/h (2 Bft) S-SO 157 7,4 C 7,1 C 3,9 km/h (1 Bft)
13.09.2013 10:14 7,9 C 96 % 1022,6 hPa 0,7 l/m 5,8 km/h (2 Bft) S-SO 157 7,3 C 7,3 C 7,1 km/h (2 Bft)
13.09.2013 10:19 7,9 C 96 % 1022,9 hPa 0,0 l/m 5,8 km/h (2 Bft) S 180 7,3 C 7,3 C 7,4 km/h (2 Bft)
13.09.2013 10:24 7,9 C 96 % 1022,9 hPa 0,0 l/m 4,8 km/h (1 Bft) N 360 7,3 C 7,7 C 6,6 km/h (2 Bft)
13.09.2013 10:29 7,9 C 96 % 1022,9 hPa 0,0 l/m 5,1 km/h (1 Bft) S 180 7,3 C 7,4 C 5,5 km/h (1 Bft)
13.09.2013 10:34 8,0 C 96 % 1022,9 hPa 0,0 l/m 4,3 km/h (1 Bft) S 180 7,4 C 7,8 C 4,3 km/h (1 Bft)
13.09.2013 10:39 8,1 C 96 % 1023,0 hPa 0,0 l/m 3,4 km/h (1 Bft) S 180 7,5 C 8,2 C 3,4 km/h (1 Bft)
13.09.2013 10:44 8,4 C 96 % 1023,0 hPa 0,0 l/m 3,9 km/h (1 Bft) S-SO 157 7,8 C 8,3 C 7,7 km/h (2 Bft)
13.09.2013 10:49 8,5 C 96 % 1023,0 hPa 0,0 l/m 4,8 km/h (1 Bft) SO 135 7,9 C 8,1 C 3,5 km/h (1 Bft)
13.09.2013 10:54 8,8 C 96 % 1023,0 hPa 0,0 l/m 5,3 km/h (1 Bft) SO 135 8,2 C 8,5 C 5,8 km/h (2 Bft)
13.09.2013 10:59 8,9 C 96 % 1023,2 hPa 0,0 l/m 5,0 km/h (1 Bft) S-SW 202 8,3 C 8,7 C 3,7 km/h (1 Bft)
13.09.2013 11:04 9,0 C 96 % 1023,2 hPa 0,0 l/m 6,0 km/h (2 Bft) SO 135 8,4 C 8,6 C 7,6 km/h (2 Bft)
13.09.2013 11:09 9,1 C 96 % 1023,2 hPa 0,0 l/m 5,6 km/h (1 Bft) S 180 8,5 C 8,8 C 6,4 km/h (2 Bft)
13.09.2013 11:14 9,1 C 96 % 1023,2 hPa 0,0 l/m 5,3 km/h (1 Bft) S 180 8,5 C 9,2 C 11,9 km/h (2 Bft)
13.09.2013 11:19 9,0 C 96 % 1023,4 hPa 0,0 l/m 5,1 km/h (1 Bft) S 180 8,4 C 9,4 C 2,9 km/h (1 Bft)
13.09.2013 11:24 9,1 C 96 % 1023,4 hPa 0,0 l/m 4,5 km/h (1 Bft) O-SO 112 8,5 C 9,8 C 5,0 km/h (1 Bft)
13.09.2013 11:29 9,1 C 96 % 1023,4 hPa 0,0 l/m 3,7 km/h (1 Bft) SO 135 8,5 C 10,0 C 8,0 km/h (2 Bft)
13.09.2013 11:34 9,1 C 96 % 1023,4 hPa 0,0 l/m 4,3 km/h (1 Bft) S 180 8,5 C 9,8 C 3,2 km/h (1 Bft)
13.09.2013 11:39 9,1 C 96 % 1023,3 hPa 0,0 l/m 4,5 km/h (1 Bft) S 180 8,5 C 9,7 C 4,7 km/h (1 Bft)
13.09.2013 11:44 9,1 C 96 % 1023,3 hPa 0,0 l/m 3,9 km/h (1 Bft) S 180 8,5 C 9,7 C 4,0 km/h (1 Bft)
13.09.2013 11:49 9,1 C 96 % 1023,3 hPa 0,0 l/m 4,3 km/h (1 Bft) S-SO 157 8,5 C 9,7 C 9,7 km/h (2 Bft)
13.09.2013 11:54 9,2 C 96 % 1023,3 hPa 0,0 l/m 5,1 km/h (1 Bft) S-SO 157 8,6 C 9,4 C 6,9 km/h (2 Bft)
13.09.2013 11:59 9,3 C 96 % 1023,4 hPa 0,0 l/m 5,0 km/h (1 Bft) S-SO 157 8,7 C 9,4 C 5,6 km/h (1 Bft)
13.09.2013 12:04 9,1 C 95 % 1023,4 hPa 0,0 l/m 4,5 km/h (1 Bft) W-SW 247 8,3 C 9,7 C 6,1 km/h (2 Bft)
13.09.2013 12:09 9,1 C 95 % 1023,4 hPa 0,0 l/m 4,3 km/h (1 Bft) S-SO 157 8,3 C 9,9 C 7,7 km/h (2 Bft)
13.09.2013 12:14 9,4 C 95 % 1023,4 hPa 0,0 l/m 4,7 km/h (1 Bft) S-SW 202 8,6 C 10,1 C 6,0 km/h (2 Bft)
13.09.2013 12:19 9,5 C 95 % 1023,4 hPa 0,0 l/m 5,1 km/h (1 Bft) S 180 8,7 C 9,9 C 4,2 km/h (1 Bft)
13.09.2013 12:24 9,6 C 95 % 1023,4 hPa 0,0 l/m 5,6 km/h (1 Bft) S 180 8,8 C 9,6 C 4,5 km/h (1 Bft)
13.09.2013 12:29 9,4 C 95 % 1023,4 hPa 0,0 l/m 5,8 km/h (2 Bft) S-SW 202 8,6 C 9,3 C 9,3 km/h (2 Bft)
13.09.2013 12:34 9,1 C 95 % 1023,4 hPa 0,0 l/m 5,5 km/h (1 Bft) S-SO 157 8,3 C 8,9 C 4,3 km/h (1 Bft)
13.09.2013 12:39 9,2 C 95 % 1023,5 hPa 0,0 l/m 5,8 km/h (2 Bft) S-SO 157 8,4 C 8,8 C 8,9 km/h (2 Bft)
13.09.2013 12:44 9,4 C 95 % 1023,5 hPa 0,0 l/m 5,0 km/h (1 Bft) O 90 8,6 C 9,1 C 11,4 km/h (2 Bft)
13.09.2013 12:48 9,4 C 95 % 1023,5 hPa 0,0 l/m 5,0 km/h (1 Bft) O 90 8,6 C 9,1 C 11,4 km/h (2 Bft)
13.09.2013 12:50 9,3 C 95 % 1023,5 hPa 0,0 l/m 4,7 km/h (1 Bft) S 180 8,5 C 9,6 C 4,0 km/h (1 Bft)
13.09.2013 12:55 9,4 C 95 % 1023,5 hPa 0,0 l/m 5,6 km/h (1 Bft) O-SO 112 8,6 C 9,2 C 5,5 km/h (1 Bft)
13.09.2013 13:00 9,8 C 95 % 1023,7 hPa 0,0 l/m 4,5 km/h (1 Bft) S 180 9,0 C 9,9 C 5,5 km/h (1 Bft)
13.09.2013 13:05 9,8 C 95 % 1023,7 hPa 0,0 l/m 3,9 km/h (1 Bft) S-SW 202 9,0 C 10,1 C 5,5 km/h (1 Bft)
13.09.2013 13:10 10,2 C 95 % 1023,7 hPa 0,0 l/m 5,0 km/h (1 Bft) S-SO 157 9,4 C 10,1 C 6,4 km/h (2 Bft)
13.09.2013 13:15 10,8 C 94 % 1023,7 hPa 0,0 l/m 5,5 km/h (1 Bft) S 180 9,9 C 10,9 C 8,7 km/h (2 Bft)
13.09.2013 13:20 11,2 C 94 % 1024,1 hPa 0,0 l/m 5,8 km/h (2 Bft) S-SO 157 10,3 C 11,5 C 9,0 km/h (2 Bft)
13.09.2013 13:25 11,4 C 94 % 1024,1 hPa 0,0 l/m 6,0 km/h (2 Bft) SW 225 10,5 C 12,1 C 6,8 km/h (2 Bft)
13.09.2013 13:30 11,3 C 93 % 1024,1 hPa 0,0 l/m 5,6 km/h (1 Bft) SO 135 10,2 C 12,3 C 4,8 km/h (1 Bft)
13.09.2013 13:35 11,2 C 93 % 1024,1 hPa 0,0 l/m 6,0 km/h (2 Bft) S-SW 202 10,1 C 12,3 C 10,3 km/h (2 Bft)
13.09.2013 13:40 11,3 C 92 % 1024,2 hPa 0,0 l/m 6,8 km/h (2 Bft) S 180 10,0 C 11,9 C 13,2 km/h (3 Bft)
13.09.2013 13:45 11,4 C 91 % 1024,2 hPa 0,0 l/m 6,3 km/h (2 Bft) S 180 10,0 C 12,5 C 9,0 km/h (2 Bft)
13.09.2013 13:50 11,3 C 91 % 1024,2 hPa 0,0 l/m 5,6 km/h (1 Bft) S 180 9,9 C 12,7 C 4,5 km/h (1 Bft)
13.09.2013 13:55 10,7 C 89 % 1024,2 hPa 0,0 l/m 6,1 km/h (2 Bft) S-SW 202 9,0 C 12,2 C 7,2 km/h (2 Bft)
13.09.2013 14:00 10,4 C 89 % 1024,1 hPa 0,0 l/m 6,6 km/h (2 Bft) S 180 8,7 C 11,2 C 9,2 km/h (2 Bft)
13.09.2013 14:05 10,2 C 90 % 1024,1 hPa 0,0 l/m 5,6 km/h (1 Bft) S 180 8,6 C 10,4 C 7,7 km/h (2 Bft)
13.09.2013 14:10 10,2 C 90 % 1024,1 hPa 0,0 l/m 5,1 km/h (1 Bft) S-SW 202 8,6 C 10,2 C 5,1 km/h (1 Bft)
13.09.2013 14:15 10,4 C 91 % 1024,1 hPa 0,0 l/m 4,0 km/h (1 Bft) SO 135 9,0 C 10,3 C 2,1 km/h (1 Bft)
13.09.2013 14:20 10,7 C 91 % 1023,9 hPa 0,0 l/m 3,7 km/h (1 Bft) SO 135 9,3 C 10,5 C 6,8 km/h (2 Bft)
13.09.2013 14:25 10,9 C 91 % 1023,9 hPa 0,0 l/m 4,0 km/h (1 Bft) S 180 9,5 C 11,3 C 4,5 km/h (1 Bft)
13.09.2013 14:30 11,1 C 91 % 1023,9 hPa 0,0 l/m 4,8 km/h (1 Bft) S 180 9,7 C 11,8 C 5,5 km/h (1 Bft)
13.09.2013 14:35 11,5 C 90 % 1023,9 hPa 0,0 l/m 6,6 km/h (2 Bft) S 180 9,9 C 12,2 C 11,9 km/h (2 Bft)
13.09.2013 14:40 11,6 C 89 % 1024,2 hPa 0,0 l/m 6,6 km/h (2 Bft) O-SO 112 9,8 C 12,7 C 7,7 km/h (2 Bft)
13.09.2013 14:45 11,0 C 89 % 1024,2 hPa 0,0 l/m 6,4 km/h (2 Bft) SW 225 9,3 C 12,5 C 7,6 km/h (2 Bft)
13.09.2013 14:50 10,9 C 90 % 1024,2 hPa 0,0 l/m 5,8 km/h (2 Bft) S-SW 202 9,3 C 12,1 C 10,6 km/h (2 Bft)
13.09.2013 14:55 10,6 C 90 % 1024,2 hPa 0,0 l/m 5,6 km/h (1 Bft) S-SW 202 9,0 C 11,7 C 5,3 km/h (1 Bft)
13.09.2013 15:00 10,6 C 90 % 1023,8 hPa 0,0 l/m 5,5 km/h (1 Bft) S 180 9,0 C 11,6 C 2,4 km/h (1 Bft)
13.09.2013 15:05 10,8 C 90 % 1023,8 hPa 0,0 l/m 3,7 km/h (1 Bft) S 180 9,2 C 11,8 C 4,7 km/h (1 Bft)
13.09.2013 15:10 10,9 C 90 % 1023,8 hPa 0,0 l/m 3,5 km/h (1 Bft) O 90 9,3 C 12,1 C 6,9 km/h (2 Bft)
13.09.2013 15:15 11,2 C 90 % 1023,8 hPa 0,0 l/m 4,0 km/h (1 Bft) S 180 9,6 C 12,4 C 7,1 km/h (2 Bft)
13.09.2013 15:20 11,3 C 89 % 1023,7 hPa 0,0 l/m 5,1 km/h (1 Bft) S-SO 157 9,6 C 12,6 C 12,2 km/h (2 Bft)
13.09.2013 15:25 11,6 C 89 % 1023,7 hPa 0,0 l/m 5,6 km/h (1 Bft) S 180 9,8 C 13,1 C 7,6 km/h (2 Bft)
13.09.2013 15:30 11,8 C 89 % 1023,7 hPa 0,0 l/m 5,8 km/h (2 Bft) S 180 10,0 C 13,2 C 10,8 km/h (2 Bft)
13.09.2013 15:35 11,9 C 89 % 1023,7 hPa 0,0 l/m 6,1 km/h (2 Bft) S-SO 157 10,1 C 13,2 C 4,3 km/h (1 Bft)
13.09.2013 15:40 12,4 C 89 % 1023,6 hPa 0,0 l/m 5,3 km/h (1 Bft) S 180 10,6 C 13,7 C 6,3 km/h (2 Bft)
13.09.2013 15:45 12,6 C 89 % 1023,6 hPa 0,0 l/m 4,3 km/h (1 Bft) O 90 10,8 C 14,0 C 5,5 km/h (1 Bft)
13.09.2013 15:50 12,7 C 89 % 1023,6 hPa 0,0 l/m 4,2 km/h (1 Bft) SO 135 10,9 C 14,1 C 4,5 km/h (1 Bft)
13.09.2013 15:55 12,8 C 90 % 1023,6 hPa 0,0 l/m 3,9 km/h (1 Bft) S 180 11,2 C 14,3 C 9,5 km/h (2 Bft)
13.09.2013 16:00 12,7 C 90 % 1023,8 hPa 0,0 l/m 4,7 km/h (1 Bft) O 90 11,1 C 14,1 C 3,1 km/h (1 Bft)
13.09.2013 16:05 12,6 C 89 % 1023,8 hPa 0,0 l/m 5,3 km/h (1 Bft) W-SW 247 10,8 C 14,0 C 4,5 km/h (1 Bft)
13.09.2013 16:10 12,8 C 89 % 1023,8 hPa 0,0 l/m 5,3 km/h (1 Bft) S 180 11,0 C 14,0 C 8,0 km/h (2 Bft)
13.09.2013 16:15 13,3 C 89 % 1023,8 hPa 0,0 l/m 5,0 km/h (1 Bft) S-SW 202 11,5 C 14,5 C 3,7 km/h (1 Bft)
13.09.2013 16:20 13,6 C 89 % 1024,1 hPa 0,0 l/m 4,7 km/h (1 Bft) S 180 11,8 C 14,8 C 3,4 km/h (1 Bft)
13.09.2013 16:25 13,5 C 88 % 1024,1 hPa 0,0 l/m 4,5 km/h (1 Bft) S 180 11,6 C 15,1 C 5,3 km/h (1 Bft)
13.09.2013 16:30 13,6 C 87 % 1024,1 hPa 0,0 l/m 4,5 km/h (1 Bft) SW 225 11,5 C 15,2 C 7,9 km/h (2 Bft)
13.09.2013 16:35 13,7 C 85 % 1024,1 hPa 0,0 l/m 6,1 km/h (2 Bft) S 180 11,2 C 15,7 C 7,4 km/h (2 Bft)
13.09.2013 16:40 13,9 C 84 % 1023,9 hPa 0,0 l/m 6,9 km/h (2 Bft) SO 135 11,2 C 15,6 C 3,9 km/h (1 Bft)
13.09.2013 16:45 13,7 C 82 % 1023,9 hPa 0,0 l/m 6,6 km/h (2 Bft) S 180 10,7 C 16,8 C 8,5 km/h (2 Bft)
13.09.2013 16:50 13,7 C 83 % 1023,9 hPa 0,0 l/m 6,9 km/h (2 Bft) SO 135 10,9 C 16,0 C 12,2 km/h (2 Bft)
13.09.2013 16:55 13,5 C 83 % 1023,9 hPa 0,0 l/m 6,9 km/h (2 Bft) SW 225 10,7 C 15,6 C 3,7 km/h (1 Bft)
13.09.2013 17:00 13,4 C 83 % 1024,1 hPa 0,0 l/m 6,3 km/h (2 Bft) S 180 10,6 C 15,7 C 8,7 km/h (2 Bft)
13.09.2013 17:05 13,2 C 84 % 1024,1 hPa 0,0 l/m 4,8 km/h (1 Bft) S-SO 157 10,6 C 15,2 C 6,0 km/h (2 Bft)
13.09.2013 17:10 13,0 C 84 % 1024,1 hPa 0,0 l/m 4,7 km/h (1 Bft) S-SW 202 10,4 C 14,7 C 6,0 km/h (2 Bft)
13.09.2013 17:15 12,8 C 88 % 1024,1 hPa 0,0 l/m 2,9 km/h (1 Bft) S 180 10,9 C 14,0 C 3,1 km/h (1 Bft)
13.09.2013 17:20 12,6 C 88 % 1023,6 hPa 0,0 l/m 2,7 km/h (1 Bft) S-SO 157 10,7 C 13,7 C 3,2 km/h (1 Bft)
13.09.2013 17:25 12,3 C 88 % 1023,6 hPa 0,0 l/m 2,9 km/h (1 Bft) S-SO 157 10,4 C 13,2 C 5,0 km/h (1 Bft)
13.09.2013 17:30 12,2 C 88 % 1023,6 hPa 0,0 l/m 2,6 km/h (1 Bft) S 180 10,3 C 12,9 C 1,6 km/h (1 Bft)
13.09.2013 17:35 12,1 C 89 % 1023,6 hPa 0,0 l/m 2,3 km/h (1 Bft) S-SW 202 10,3 C 12,5 C 2,1 km/h (1 Bft)
13.09.2013 17:40 11,9 C 89 % 1023,5 hPa 0,0 l/m 1,9 km/h (1 Bft) W 270 10,1 C 12,2 C 4,8 km/h (1 Bft)
13.09.2013 17:45 11,2 C 89 % 1023,5 hPa 0,0 l/m 3,4 km/h (1 Bft) S 180 9,5 C 11,3 C 4,7 km/h (1 Bft)
13.09.2013 17:50 11,1 C 89 % 1023,5 hPa 0,0 l/m 3,9 km/h (1 Bft) W-SW 247 9,4 C 10,9 C 1,6 km/h (1 Bft)
13.09.2013 17:55 11,0 C 90 % 1023,5 hPa 0,0 l/m 1,8 km/h (1 Bft) SO 135 9,4 C 10,9 C 0,0 km/h (0 Bft)
13.09.2013 18:00 11,0 C 91 % 1023,4 hPa 0,0 l/m 1,6 km/h (1 Bft) S 180 9,6 C 10,8 C 1,6 km/h (1 Bft)
13.09.2013 18:05 10,8 C 91 % 1023,4 hPa 0,0 l/m 1,6 km/h (1 Bft) O-SO 112 9,4 C 10,7 C 2,9 km/h (1 Bft)
13.09.2013 18:10 10,7 C 91 % 1023,4 hPa 0,0 l/m 1,1 km/h (1 Bft) O 90 9,3 C 10,6 C 0,0 km/h (0 Bft)
13.09.2013 18:15 10,7 C 92 % 1023,4 hPa 0,0 l/m 0,5 km/h (0 Bft) S 180 9,5 C 10,7 C 0,0 km/h (0 Bft)
13.09.2013 18:20 10,7 C 92 % 1023,2 hPa 0,0 l/m 0,2 km/h (0 Bft) O 90 9,5 C 10,8 C 0,0 km/h (0 Bft)
13.09.2013 18:25 10,7 C 92 % 1023,2 hPa 0,0 l/m 0,2 km/h (0 Bft) O-SO 112 9,5 C 10,9 C 0,0 km/h (0 Bft)
13.09.2013 18:30 10,6 C 92 % 1023,2 hPa 0,0 l/m 0,2 km/h (0 Bft) S-SO 157 9,4 C 10,9 C 0,0 km/h (0 Bft)
13.09.2013 18:35 10,6 C 93 % 1023,2 hPa 0,0 l/m 0,2 km/h (0 Bft) O 90 9,5 C 10,9 C 0,0 km/h (0 Bft)
13.09.2013 18:40 10,5 C 93 % 1023,2 hPa 0,0 l/m 0,2 km/h (0 Bft) O-SO 112 9,4 C 10,8 C 0,0 km/h (0 Bft)
13.09.2013 18:45 10,5 C 93 % 1023,2 hPa 0,0 l/m 0,0 km/h (0 Bft) W-SW 247 9,4 C 10,7 C 0,0 km/h (0 Bft)
13.09.2013 18:50 10,4 C 93 % 1023,2 hPa 0,0 l/m 0,0 km/h (0 Bft) SO 135 9,3 C 10,7 C 0,0 km/h (0 Bft)
13.09.2013 18:55 10,3 C 93 % 1023,2 hPa 0,0 l/m 0,0 km/h (0 Bft) S 180 9,2 C 10,6 C 0,0 km/h (0 Bft)
13.09.2013 19:00 10,2 C 93 % 1023,6 hPa 0,0 l/m 0,0 km/h (0 Bft) SO 135 9,1 C 10,5 C 0,0 km/h (0 Bft)
13.09.2013 19:05 10,0 C 93 % 1023,6 hPa 0,0 l/m 0,3 km/h (0 Bft) NO 45 8,9 C 10,3 C 2,6 km/h (1 Bft)
13.09.2013 19:10 9,7 C 93 % 1023,6 hPa 0,0 l/m 0,3 km/h (0 Bft) S 180 8,6 C 10,2 C 0,0 km/h (0 Bft)
13.09.2013 19:15 9,4 C 93 % 1023,6 hPa 0,0 l/m 0,2 km/h (0 Bft) S-SW 202 8,3 C 9,7 C 0,0 km/h (0 Bft)
13.09.2013 19:20 9,1 C 93 % 1023,4 hPa 0,0 l/m 0,0 km/h (0 Bft) N-NO 22 8,0 C 9,5 C 0,0 km/h (0 Bft)
13.09.2013 19:25 8,9 C 93 % 1023,4 hPa 0,0 l/m 0,3 km/h (0 Bft) O 90 7,8 C 9,2 C 1,8 km/h (1 Bft)
13.09.2013 19:30 9,0 C 93 % 1023,4 hPa 0,0 l/m 0,5 km/h (0 Bft) O-NO 67 7,9 C 9,1 C 0,0 km/h (0 Bft)
13.09.2013 19:35 9,0 C 93 % 1023,4 hPa 0,0 l/m 0,3 km/h (0 Bft) O 90 7,9 C 9,1 C 0,0 km/h (0 Bft)
13.09.2013 19:40 9,2 C 94 % 1023,2 hPa 0,0 l/m 0,2 km/h (0 Bft) NO 45 8,3 C 9,1 C 1,9 km/h (1 Bft)
13.09.2013 19:45 9,3 C 94 % 1023,2 hPa 0,0 l/m 0,5 km/h (0 Bft) O-NO 67 8,4 C 9,2 C 0,0 km/h (0 Bft)
13.09.2013 19:50 9,4 C 94 % 1023,2 hPa 0,0 l/m 0,5 km/h (0 Bft) NO 45 8,5 C 9,3 C 1,8 km/h (1 Bft)
13.09.2013 19:55 9,4 C 94 % 1023,2 hPa 0,0 l/m 0,6 km/h (0 Bft) O-NO 67 8,5 C 9,3 C 0,0 km/h (0 Bft)
13.09.2013 20:00 9,4 C 94 % 1023,2 hPa 0,0 l/m 0,6 km/h (0 Bft) O 90 8,5 C 9,4 C 0,0 km/h (0 Bft)
13.09.2013 20:05 9,4 C 94 % 1023,2 hPa 0,0 l/m 0,2 km/h (0 Bft) O-SO 112 8,5 C 9,4 C 0,0 km/h (0 Bft)
13.09.2013 20:10 9,4 C 94 % 1023,2 hPa 0,0 l/m 0,0 km/h (0 Bft) O-NO 67 8,5 C 9,4 C 0,0 km/h (0 Bft)
13.09.2013 20:15 9,4 C 94 % 1023,2 hPa 0,0 l/m 0,0 km/h (0 Bft) O-SO 112 8,5 C 9,4 C 0,0 km/h (0 Bft)
13.09.2013 20:20 9,4 C 94 % 1023,3 hPa 0,0 l/m 0,3 km/h (0 Bft) NO 45 8,5 C 9,4 C 2,9 km/h (1 Bft)
13.09.2013 20:25 9,4 C 94 % 1023,3 hPa 0,0 l/m 1,1 km/h (1 Bft) NO 45 8,5 C 9,4 C 0,0 km/h (0 Bft)
13.09.2013 20:30 9,3 C 94 % 1023,3 hPa 0,0 l/m 1,3 km/h (1 Bft) O 90 8,4 C 9,4 C 0,0 km/h (0 Bft)
13.09.2013 20:35 9,3 C 94 % 1023,3 hPa 0,0 l/m 0,5 km/h (0 Bft) NO 45 8,4 C 9,3 C 2,6 km/h (1 Bft)
13.09.2013 20:40 9,2 C 94 % 1023,4 hPa 0,0 l/m 0,8 km/h (0 Bft) O 90 8,3 C 9,2 C 0,0 km/h (0 Bft)
13.09.2013 20:45 9,2 C 94 % 1023,4 hPa 0,0 l/m 1,0 km/h (0 Bft) O 90 8,3 C 9,2 C 2,3 km/h (1 Bft)
13.09.2013 20:50 9,1 C 94 % 1023,4 hPa 0,0 l/m 0,8 km/h (0 Bft) NO 45 8,2 C 9,2 C 2,9 km/h (1 Bft)
13.09.2013 20:55 9,1 C 94 % 1023,4 hPa 0,0 l/m 1,8 km/h (1 Bft) O-NO 67 8,2 C 9,1 C 3,1 km/h (1 Bft)
13.09.2013 21:00 9,0 C 94 % 1023,4 hPa 0,0 l/m 2,1 km/h (1 Bft) N-NO 22 8,1 C 9,1 C 1,8 km/h (1 Bft)
13.09.2013 21:05 8,9 C 95 % 1023,4 hPa 0,0 l/m 1,0 km/h (0 Bft) NO 45 8,1 C 9,0 C 0,0 km/h (0 Bft)
13.09.2013 21:10 8,9 C 95 % 1023,4 hPa 0,0 l/m 0,2 km/h (0 Bft) N-NO 22 8,1 C 8,9 C 0,0 km/h (0 Bft)
13.09.2013 21:15 8,9 C 95 % 1023,4 hPa 0,0 l/m 0,2 km/h (0 Bft) O 90 8,1 C 8,9 C 0,0 km/h (0 Bft)
13.09.2013 21:20 8,9 C 95 % 1023,4 hPa 0,0 l/m 0,3 km/h (0 Bft) O-NO 67 8,1 C 8,9 C 0,0 km/h (0 Bft)
13.09.2013 21:25 9,0 C 95 % 1023,4 hPa 0,0 l/m 1,0 km/h (0 Bft) N-NO 22 8,2 C 8,9 C 0,0 km/h (0 Bft)
13.09.2013 21:30 8,9 C 95 % 1023,4 hPa 0,0 l/m 1,1 km/h (1 Bft) O 90 8,1 C 9,0 C 0,0 km/h (0 Bft)
13.09.2013 21:35 9,0 C 95 % 1023,4 hPa 0,0 l/m 1,1 km/h (1 Bft) NO 45 8,2 C 9,0 C 0,0 km/h (0 Bft)
13.09.2013 21:40 9,0 C 95 % 1023,3 hPa 0,0 l/m 0,8 km/h (0 Bft) NO 45 8,2 C 9,0 C 0,0 km/h (0 Bft)
13.09.2013 21:45 8,9 C 95 % 1023,3 hPa 0,0 l/m 0,2 km/h (0 Bft) O-SO 112 8,1 C 8,9 C 0,0 km/h (0 Bft)
13.09.2013 21:50 8,8 C 95 % 1023,3 hPa 0,0 l/m 0,0 km/h (0 Bft) NO 45 8,0 C 8,9 C 0,0 km/h (0 Bft)
13.09.2013 21:55 8,9 C 95 % 1023,3 hPa 0,0 l/m 0,6 km/h (0 Bft) NO 45 8,1 C 8,9 C 2,4 km/h (1 Bft)
13.09.2013 22:00 8,9 C 95 % 1023,2 hPa 0,0 l/m 1,1 km/h (1 Bft) NO 45 8,1 C 8,9 C 2,3 km/h (1 Bft)
13.09.2013 22:05 8,9 C 95 % 1023,2 hPa 0,0 l/m 0,8 km/h (0 Bft) N 360 8,1 C 8,9 C 1,9 km/h (1 Bft)
13.09.2013 22:10 8,9 C 95 % 1023,2 hPa 0,0 l/m 0,5 km/h (0 Bft) NO 45 8,1 C 8,8 C 0,0 km/h (0 Bft)
13.09.2013 22:15 8,8 C 95 % 1023,2 hPa 0,0 l/m 0,2 km/h (0 Bft) O 90 8,0 C 8,8 C 0,0 km/h (0 Bft)
13.09.2013 22:20 8,8 C 95 % 1022,9 hPa 0,0 l/m 0,2 km/h (0 Bft) NO 45 8,0 C 8,7 C 3,1 km/h (1 Bft)
13.09.2013 22:25 8,7 C 95 % 1022,9 hPa 0,0 l/m 1,1 km/h (1 Bft) S-SO 157 7,9 C 8,8 C 2,7 km/h (1 Bft)
13.09.2013 22:30 8,7 C 95 % 1022,9 hPa 0,0 l/m 1,4 km/h (1 Bft) N-NO 22 7,9 C 8,8 C 0,0 km/h (0 Bft)
13.09.2013 22:35 8,7 C 95 % 1022,9 hPa 0,0 l/m 0,8 km/h (0 Bft) NO 45 7,9 C 8,7 C 0,0 km/h (0 Bft)
13.09.2013 22:40 8,6 C 95 % 1022,9 hPa 0,0 l/m 0,5 km/h (0 Bft) O-NO 67 7,8 C 8,6 C 0,0 km/h (0 Bft)
13.09.2013 22:45 8,4 C 95 % 1022,9 hPa 0,0 l/m 0,6 km/h (0 Bft) NO 45 7,6 C 8,5 C 1,8 km/h (1 Bft)
13.09.2013 22:50 8,3 C 95 % 1022,9 hPa 0,0 l/m 0,6 km/h (0 Bft) NO 45 7,5 C 8,4 C 2,3 km/h (1 Bft)
13.09.2013 22:55 8,1 C 95 % 1022,9 hPa 0,0 l/m 1,0 km/h (0 Bft) O-NO 67 7,3 C 8,2 C 1,8 km/h (1 Bft)
13.09.2013 23:00 8,0 C 95 % 1022,9 hPa 0,0 l/m 0,8 km/h (0 Bft) NO 45 7,2 C 8,1 C 0,0 km/h (0 Bft)
13.09.2013 23:05 7,9 C 95 % 1022,9 hPa 0,0 l/m 0,3 km/h (0 Bft) NO 45 7,1 C 7,9 C 0,0 km/h (0 Bft)
13.09.2013 23:10 7,8 C 95 % 1022,9 hPa 0,0 l/m 0,2 km/h (0 Bft) N-NO 22 7,0 C 7,8 C 0,0 km/h (0 Bft)
13.09.2013 23:15 7,6 C 95 % 1022,9 hPa 0,0 l/m 0,2 km/h (0 Bft) NO 45 6,9 C 7,6 C 0,0 km/h (0 Bft)
13.09.2013 23:20 7,6 C 95 % 1022,8 hPa 0,0 l/m 0,0 km/h (0 Bft) O 90 6,9 C 7,6 C 0,0 km/h (0 Bft)
13.09.2013 23:25 7,5 C 95 % 1022,8 hPa 0,0 l/m 0,0 km/h (0 Bft) N 360 6,8 C 7,5 C 0,0 km/h (0 Bft)
13.09.2013 23:30 7,5 C 95 % 1022,8 hPa 0,0 l/m 0,0 km/h (0 Bft) NO 45 6,8 C 7,4 C 1,6 km/h (1 Bft)
13.09.2013 23:35 7,6 C 95 % 1022,8 hPa 0,0 l/m 0,2 km/h (0 Bft) NO 45 6,9 C 7,5 C 0,0 km/h (0 Bft)
13.09.2013 23:40 7,6 C 95 % 1022,9 hPa 0,0 l/m 0,2 km/h (0 Bft) O-NO 67 6,9 C 7,5 C 0,0 km/h (0 Bft)
13.09.2013 23:45 7,5 C 95 % 1022,9 hPa 0,0 l/m 0,0 km/h (0 Bft) NO 45 6,8 C 7,4 C 0,0 km/h (0 Bft)
13.09.2013 23:50 7,4 C 95 % 1022,9 hPa 0,0 l/m 0,0 km/h (0 Bft) N-NO 22 6,7 C 7,3 C 0,0 km/h (0 Bft)
13.09.2013 23:55 7,1 C 95 % 1022,9 hPa 0,0 l/m 0,0 km/h (0 Bft) W 270 6,4 C 7,1 C 0,0 km/h (0 Bft)
_ Min-Zeit 06:50 16:45 04:15 - 23:55 - - 06:50 07:20 23:55
Minimum _ 6,5 C 82 % 1020,8 hPa - 0,0 km/h (0 Bft) - - 5,9 C 6,7 C 0,0 km/h (0 Bft)
_ Max-Zeit 16:40 11:59 14:55 04:35 16:55 - - 16:20 16:45 09:59
Maximum _ 13,9 C 96 % 1024,2 hPa 1,4 l/m 6,9 km/h
SW (2 Bft)
- - 11,8 C 16,8 C 15,6 km/h
SO (3 Bft)
Durchschnitt _ 8,7 C 94 % 1022,6 hPa #13,1 l/m 2,5 km/h (1 Bft) S - 7,8 C 9,1 C 3,4 km/h (1 Bft)